CZ-3B DEB, 42473

Orbit data source: Space-Track

CZ-3B DEB, 42473 is space debris in HEO originally from a launch on Mon, 19 Dec 2011 UTC launched from the Xichang Space Center, China (XSC). Debris objects in space refer to the collection of defunct objects orbiting the Earth. Examples of debris include non-operational satellites, rocket bodies, and fragments generated from explosions, collisions, or faulty payload assembly.

Loading next visibility...
Identifier
42473, 2011-077AN
Orbit
HEO
Last TLE update
6 months ago
Origin
Manufacturer
CALT
Mission
Spacecraft
Bus & Motor
Unknown
Mass
Unknown
Launch date (UTC)
2011-12-19 (13 years ago)
Launch vehicle
Unknown
Launch site
Xichang Space Center, China (XSC)
Object type
Payload
Rocket body
Debris
Shape & HBR
Unknown
Radar Cross Section
Medium (>0.1 m² and <1 m²)

Expand to show TLE details & history

TLE from 6 months ago
0 CZ-3B DEB
1 42473U 11077AN  24303.72577238  .00000018  00000-0  00000-0 0  9998
2 42473  21.7510 176.2071 7253014 268.3783  15.4578  1.69232462 53015
Epoch: 2024-10-29T17:25Z
Definitive object data (Epoch: 2024-10-29T17:25:06.733Z)
Latitude
0.00034°
Longitude
-123.38417°
Altitude
8,087.237 km
Speed
6.458 km/s
True Right ascension
11h 45m 42s
True Declination
0° 00' 01"
Sunlit
Object was in daylight at TLE epoch
Visualization TLE readout
Latitude
19.33069°
Longitude
-45.31798°
Altitude
25,801.353 km
Speed
3.373 km/s
Apparent Right ascension
17h 27m 31s
Apparent Declination
13° 35' 45"
Sunlit
Object is in daylight
Visualization observer readout
Local Sidereal Time
13:56:08
Azimuth
104.226° ESE
Elevation
36.948°
Doppler factor
1
Orbital elements
Apogee altitude
44,947.055 km
Perigee altitude
1,793.744 km
Semi-major axis
29,748.536 km
Eccentricity
0.7253014
Inclination
21.751°
RAAN
176.2071°
Arg. of periapsis
268.3783°
True anomaly
91.68183°
Mean anomaly
15.4578°
Eccentric anomaly
44.6764°
Mean motion
0.423 °/min
BSTAR
Unknown
Orbital period
851.06 mins
Loading maneuver chart data...
Loading SW <> Apogee altitude chart data...
Loading historical data...
Loading historical data...
Loading historical data...
Loading historical data...
Loading historical data...
Loading historical data...
Loading historical data...

CZ-3B DEB Visibility forecast

Observer location: undefined°, undefined°

Span
Click to sort rows by Start time (UTC) header in descending order
Start Az.
Max El. time (UTC)
Max El. Az.
Max El.
End time (UTC)
End Az.
673 mins2025-05-09 05:47:24.718Z104.252° ESE2025-05-09 10:54:24.718Z164.125° S38.692°2025-05-09 17:00:24.718Z193.09° SSW
|